Regional Weather Roundup
Issued by NWS

Current Version | Previous Version | Text Only | Print | Product List | Glossary Off
Versions: 1 2 3 4 5 6 7 8 9 10 11 12 13 14 15 16 17 18 19 20 21 22 23 24 25 26 27
000 ASUS45 KTFX 201410 RWRMT Montana Regional Weather Roundup National Weather Service Great Falls MT 800 AM MDT FRI MAY 20 2022 NOTE: "FAIR" indicates few or no clouds below 12,000 feet with no significant weather and/or obstructions to visibility. MTZ001>007-043-201500- West of the divide CITY SKY/WX TMP DP RH WIND PRES REMARKS Kalispell PTSUNNY 42 39 89 CALM 30.10R Missoula CLOUDY 41 35 79 W6 30.10R Butte CLOUDY 33 28 81 W5 30.04R WCI 29 Anaconda N/A 36 30 80 CALM 30.06R Deer Lodge N/A 36 36 100 N5 30.09R WCI 32 Hamilton CLOUDY 39 34 81 CALM 30.09R Mullan Pass CLOUDY 32 25 75 CALM 30.05R Plains N/A 39 27 60 MISG 30.11R $$ MTZ008-052>055-201500- Southwest Montana CITY SKY/WX TMP DP RH WIND PRES REMARKS Bozeman SNOW 33 32 96 CALM 30.04R VSB 1/2 Dillon PTSUNNY 31 28 89 SW5 30.00R WCI 26 Ennis CLOUDY 32 27 80 N18 30.03R WCI 20 Three Forks N/A 37 30 75 CALM 30.01R Twin Bridges CLOUDY 37 28 70 NE15 30.03R WCI 28 W Yellowstone CLOUDY 28 21 74 NE7 29.93R WCI 21 $$ MTZ009-010-012-014-046-048-049-054-201500- East Slopes and Central Montana CITY SKY/WX TMP DP RH WIND PRES REMARKS Cut Bank CLOUDY 36 35 96 N16 30.07R WCI 26 Great Falls LGT RAIN 36 34 92 NW14 30.04R WCI 27 Helena CLOUDY 37 32 82 W15 30.05R WCI 28 Malmstrom AFB LGT RAIN 37 36 98 N12 30.05R WCI 29 Augusta FLURRIES 34 N/A N/A N16 30.06R WCI 23 Bowmans Corner LGT RAIN 34 33 96 N17 30.03R WCI 23 Choteau N/A 36 36 100 N17 30.05R WCI 25 Fairfield CLOUDY 37 34 88 N15 30.05R WCI 28 Power LGT RAIN 37 36 97 NW16 30.03R WCI 27 Raynesford FLURRIES 34 35 100 W12 30.02R WCI 26 Ulm LGT RAIN 37 36 98 N15 30.05R WCI 28 $$ MTZ011-013-016-021-045-047-050-051-201500- North Central Montana CITY SKY/WX TMP DP RH WIND PRES REMARKS Havre CLOUDY 40 35 83 N8 30.00R WCI 34 Lewistown LGT SNOW 33 33 100 NW9 29.96R FOG WCI 25 Chinook N/A 41 36 81 NW10 30.00R Denton PTSUNNY 36 34 93 NW17 29.95R WCI 25 N Bar Ranch CLOUDY 32 27 80 NW17G25 29.93R WCI 21 Stanford FLURRIES 33 32 96 NW16 29.98R WCI 22 Winifred CLOUDY 36 N/A N/A NW15 29.96R WCI 26 $$ MTZ017>020-022>027-061-062-201500- Northeast Montana CITY SKY/WX TMP DP RH WIND PRES REMARKS Glasgow CLOUDY 40 36 86 NW15 29.86R WCI 32 Culbertson PTSUNNY 37 37 100 N24 29.75R WCI 26 Glendive LGT SNOW 34 33 96 N22G29 29.75R FOG WCI 22 Jordan N/A 39 35 86 N17G25 29.87R WCI 30 Malta SUNNY 41 32 70 N17G24 29.92R Sidney LGT RAIN 35 33 92 N21 29.74R WCI 24 Wolf Point CLOUDY 38 34 85 NW18G31 29.83R WCI 28 $$ MTZ028>42-056>058-201500- Southcentral and southeast Montana CITY SKY/WX TMP DP RH WIND PRES REMARKS Baker LGT SNOW 33 31 92 NW23G30 29.69R FOG WCI 21 Big Timber PTSUNNY 36 27 69 W15G22 29.98R WCI 26 Billings LGT SNOW 34 30 85 NW12 29.96R FOG WCI 25 Hardin CLOUDY 39 30 70 NW20 29.93R WCI 30 Harlowton PTSUNNY 37 29 74 N21 29.96R WCI 26 Laurel N/A 32 30 93 N7 29.99R FOG WCI 26 Livingston FLURRIES 36 28 73 NW8 29.99R WCI 30 Miles City MIX PCPN 35 32 88 NW24 29.82R WCI 23 $$ Regional Reports...Dakotas/MN CITY SKY/WX TMP DP RH WIND PRES REMARKS Williston MIX PCPN 34 32 92 N26G37 29.71R WCI 21 Minot LGT SNOW 34 32 92 N26G39 29.57R VSB 3/4 WCI 21 Dickinson CLOUDY 36 32 85 N22G35 29.58R WCI 25 Beach LGT SNOW 32 32 100 N24G31 29.69R WCI 19 Bowman LGT RAIN 36 36 100 NW26G33 29.59R WCI 23 Crosby LGT SNOW 34 34 100 N22 29.72R WCI 22 Glen Ullin PTSUNNY 37 36 93 N23G29 29.53R FOG WCI 26 Hettinger LGT RAIN 38 36 92 NW25G33 29.57R FOG WCI 27 Tioga LGT RAIN 34 34 100 N25G35 29.67R WCI 21 Watford City LGT RAIN 36 36 100 N21G38 29.68R WCI 24 Bismarck RAIN 46 43 89 N22G31 29.46R Grand Forks CLOUDY 44 39 82 N21G32 29.37R Fargo PTSUNNY 51 42 71 NW12 29.35R Buffalo SD N/A 35 32 88 NW36G46 29.59R WCI 21 Rapid City PTSUNNY 42 27 55 NW30G43 29.66R Intl Falls CLOUDY 48 42 80 W12G22 29.23R Duluth MOSUNNY 50 46 86 W14 29.31F Minneapolis CLOUDY 53 48 83 W8 29.45R $$ Regional Reports...WY/CO/ID/WA/OR CITY SKY/WX TMP DP RH WIND PRES REMARKS Buffalo WY LGT SNOW 32 24 72 NW36G60 29.83R VSB 3/4 WCI 16 Cody CLOUDY 34 25 69 VRB6 29.93R WCI 29 Gillette CLOUDY 33 27 78 NW24G37 29.79R WCI 20 Powell LGT SNOW 32 28 86 NW23G29 29.89R WCI 19 Sheridan LGT SNOW 32 28 85 W28G35 29.90R FOG WCI 18 Yellowstone La N/A 24 18 77 VRB6 29.92R WCI 17 Boise PTSUNNY 40 29 64 NW13 30.07R WCI 32 Couer d`Alene MOSUNNY 42 36 79 SE8 30.12R Idaho Falls PTSUNNY 42 24 49 N18G25 29.95R Salmon PTSUNNY 41 27 57 CALM 30.06R Spokane PTSUNNY 37 30 75 S7 30.11R WCI 32 Seattle PTSUNNY 45 40 82 SE3 30.28R Portland CLOUDY 48 39 71 W3 30.30S $$ Other Reports CITY SKY/WX TMP DP RH WIND PRES REMARKS Atlanta MOSUNNY 76 66 71 SW9 30.00R Anchorage CLEAR 47 36 65 N5 30.43R Boston CLOUDY 54 51 90 SE7 30.04R Chicago PTSUNNY 75 65 70 S13G26 29.45R Fairbanks FAIR 40 32 73 NE3 30.41R Houston PTSUNNY 82 72 71 S13G22 29.72S Las Vegas NV MOSUNNY 71 18 13 NE21G30 29.62R Phoenix AZ MOSUNNY 74 26 16 E7 29.63R Salt Lake City PTSUNNY 44 22 41 NW10 29.89R San Diego CLOUDY 59 56 89 S10G23 29.81S San Francisco MOSUNNY 51 42 71 W16 29.84R Washington Dul PTSUNNY 77 63 61 SE5 29.89R $$ Regional Reports...Alberta CITY SKY/WX TMP DP RH WIND PRES REMARKS Calgary PTSUNNY 36 30 80 NW13 30.14R WCI 27 Cardston N/A 36 34 93 N14G22 N/A WCI 27 Crowsnest Pass N/A 36 34 93 SE1 N/A Del Bonita N/A 34 34 100 N18 N/A WCI 23 Fort McMurray SUNNY 39 23 52 N10G17 30.20R WCI 32 High Level MOSUNNY 37 27 65 N14 30.37R WCI 29 Lethbridge LGT RAIN 39 36 87 NW16 30.11R WCI 30 Medicine Hat PTSUNNY 41 34 75 N18G28 30.04R Milk River N/A 39 36 87 N20G25 N/A WCI 30 Onefour N/A 37 36 93 VRB37 N/A WCI 24 Pincher Creek PTSUNNY 36 34 93 NW10 30.14R WCI 28 Raymond N/A 39 36 87 N14 N/A WCI 31 Fort Smith NWT PTSUNNY 37 18 44 N6 30.35R WCI 33 $$ Regional Reports...Saskatchewan CITY SKY/WX TMP DP RH WIND PRES REMARKS Assiniboia N/A 36 28 75 N20 N/A WCI 25 Coronach N/A 36 32 87 NW18G24 N/A WCI 25 Cypress Hills N/A 32 30 93 N13G21 N/A WCI 22 Estevan MIX PCPN 34 30 86 N24G33 29.69 WCI 21 Moose Jaw N/A 37 30 75 N17 N/A WCI 28 Prince Albert PTSUNNY 37 25 60 N13G20 29.92R WCI 29 Regina CLOUDY 36 30 80 N16G24 29.80R WCI 26 Rockglen N/A 32 30 93 N16G22 N/A WCI 21 Saskatoon CLOUDY 37 25 60 N16G24 29.92R WCI 28 Swift Current MOSUNNY 36 27 69 N18G25 29.90R WCI 25 Uranium City N/A 37 9 30 NE13G18 N/A WCI 29 Val Marie N/A 37 28 70 N18 N/A WCI 27 $$

USA.gov is the U.S. government's official web portal to all federal, state and local government web resources and services.